Simultaneous Nadir Overpasses (SNOs) Predictions

Prediction of SNOs between FY3D and METOP-C Satellite Orbit:

Table of predicted SNOs for the next 14.0 days since TLE Epoch: 11/15/2021
Index Date (FY3D) Time (FY3D) Lat,Lon (FY3D) SZA (FY3D ) Date (METOP-C) Time (METOP-C) Lat,Lon (METOP-C) SZA (METOP-C ) Distance(km) Time Diff (sec)
1 11/28/2021 17:05:53 74.32, -83.99 95.71 11/28/2021 17:06:59 74.31, -81.05 95.66 88.54 66
2 11/28/2021 17:56:35 -74.21, 83.62 84.41 11/28/2021 17:57:43 -74.19, 85.98 84.46 71.36 68
3 11/28/2021 18:47:17 74.08,-108.75 95.47 11/28/2021 18:48:27 74.00,-107.18 95.36 49.00 70
4 11/28/2021 19:37:59 -73.97, 58.85 84.65 11/28/2021 19:39:10 -73.93, 59.98 84.71 34.95 71
5 11/28/2021 20:28:40 73.79,-133.41 95.18 11/28/2021 20:29:53 73.78,-133.04 95.16 11.38 73
6 11/28/2021 21:19:23 -73.73, 34.07 84.89 11/28/2021 21:20:36 -73.71, 34.12 84.91 2.40 73
7 11/28/2021 22:10:06 73.70,-158.55 95.09 11/28/2021 22:11:15 73.71,-158.55 95.10 1.42 69
8 11/28/2021 23:00:50 -73.68, 8.80 84.92 11/28/2021 23:01:57 -73.69, 8.73 84.92 2.26 67
9 11/28/2021 23:51:35 73.71, 176.06 95.11 11/28/2021 23:52:37 73.69, 176.07 95.10 1.48 62
10 11/29/2021 00:42:19 -73.69, -16.58 84.90 11/29/2021 00:43:19 -73.67, -16.65 84.92 2.91 60
11 11/29/2021 01:33:03 73.66, 150.80 95.08 11/29/2021 01:33:59 73.67, 150.68 95.09 3.79 56



Historial Predications of SNOs between FY3D and METOP-C
